Regional Weather Roundup
Issued by NWS Wakefield, VA

Home | Current Version | Previous Version | Graphics & Text | Print | Product List | Glossary On
Versions: 1 2 3 4 5 6 7 8 9 10 11 12 13 14 15 16 17 18 19 20 21 22 23 24 25 26 27 28 29 30 31 32 33 34 35 36 37 38 39 40 41 42 43 44 45 46 47 48 49 50
000
ASUS41 KAKQ 300915
RWRAKQ

REGIONAL WEATHER ROUNDUP
NATIONAL WEATHER SERVICE WAKEFIELD VA
500 AM EDT SAT MAY 30 2015

Note: "fair" indicates few or no clouds below 12,000 feet with no
significant weather and/or obstructions to visibility. * = Denotes
station may not report precipitation (e.g., rain,snow,etc.),
thunder or fog.

VAZ042-051-052>054-056-301000-
NORTHERN VIRGINIA

CITY           SKY/WX    TMP DP  RH WIND       PRES   REMARKS
WASH NATIONAL  PTCLDY    72  67  84 S9        30.19R
DULLES         MOCLDY    68  67  96 S3        30.18R
FORT BELVOIR   MOCLDY    69  66  89 SE3       30.18R
QUANTICO       CLOUDY    71  66  84 SW6       30.19R
FREDERICKSBRG* MOCLDY    69  69 100 CALM      30.18R
STAFFORD*      CLOUDY    65  64  97 CALM      30.22S FOG
WARRENTON      MOCLDY    64  64 100 CALM      30.18S FOG
CULPEPER*      FOG       62  62 100 CALM      30.19S VSB 1/2
MANASSAS*      MOCLDY    66  64  94 CALM      30.18S
LEESBURG*      CLEAR     68  68 100 S3        30.19R
WINCHESTER     CLOUDY    68  66  94 SW3       30.17R
FRONT ROYAL*   FAIR      63  63 100 CALM      30.16S
LURAY*         FAIR      64  64 100 CALM      30.18S FOG
$$

VAZ048-049-060>072-079>083-301000-
CENTRAL AND SOUTH CENTRAL VIRGINIA

CITY           SKY/WX    TMP DP  RH WIND       PRES   REMARKS
RICHMOND       PTCLDY    69  66  90 S3        30.19S
CHESTERFIELD*  NOT AVBL
PETERSBURG*    CLEAR     64  64 100 CALM      30.20S FOG
HANOVER        PTCLDY    66  65  96 CALM      30.20S
TAPPAHANNOCK*  PTCLDY    67  64  88 CALM      30.20S
QUINTON*       FAIR      67  66  97 CALM      30.19S
CHARLOTTSVILLE PTCLDY    67  66  97 S5        30.18S
GORDONSVILLE*  FOG       63  63  99 CALM      30.18R VSB 3/4
ORANGE*        PTCLDY    66  64  94 CALM      30.20S
LOUISA*        MOCLDY    68  66  94 CALM      30.18R
BUMPASS*       PTSUNNY   67  65  96 CALM      30.19R
FARMVILLE*     PTCLDY    64  64 100 CALM      30.18R FOG
CREWE*         FAIR      65  64  95 CALM      30.20R
FORT PICKETT*  FAIR      64  64  97 CALM      30.20R
CHASE CITY*    FAIR      65  65 100 CALM      30.19S
CLARKSVILLE*   FAIR      64  64 100 CALM      30.19R
SOUTH HILL*    CLEAR     65  64  96 CALM      30.25S
LAWRENCEVILLE* FAIR      64  64 100 CALM      30.20R
EMPORIA*       MOCLDY    61  61 100 CALM      30.21S FOG
$$

VAZ088>098-301000-
SOUTHEAST VIRGINIA

CITY           SKY/WX    TMP DP  RH WIND       PRES   REMARKS
NORFOLK        CLEAR     69  67  93 CALM      30.20S
VIRGINIA BEACH MOCLDY    70  66  87 CALM      30.20R
NORFOLK NAVAL  MOCLDY    73  67  81 CALM      30.22R
WEST POINT*    CLEAR     72  68  87 S3        30.21S
SALUDA*        FAIR      66  65  97 CALM      30.20R
NEWPORT NEWS   PTCLDY    70  65  84 CALM      30.20S
LANGLEY AFB    CLEAR     69  68  95 SW3       30.19S
FORT EUSTIS    CLEAR     70  70 100 S5        30.18S
WILLIAMSBURG*  CLEAR     73  70  88 S5        30.21S
HR EXEC AP*    PTSUNNY   63  59  88 CALM      30.22S
FRANKLIN*      PTCLDY    64  64  99 CALM      30.21R
WAKEFIELD      CLEAR     66  63  90 CALM      30.20S
$$

VAZ020-022-025-037-045-301000-
WEST CENTRAL AND SOUTHWEST VIRGINIA

CITY           SKY/WX    TMP DP  RH WIND       PRES   REMARKS
STAUNTON*      MOCLDY    66  65  94 CALM      30.21S FOG
WAYNESBORO*    CLOUDY    64  64  99 CALM      30.21S
HOT SPRINGS VA CLOUDY    63  63  97 SW9       30.28S
LYNCHBURG      MOCLDY    64  61  90 CALM      30.20S
DANVILLE       CLEAR     62  59  90 CALM      30.19S
SOUTH BOSTON*  FAIR      62  61  96 CALM      30.19S
MARTINSVILLE   CLOUDY    61  61 100 CALM      30.22S FOG
ROANOKE        PTCLDY    64  64 100 CALM      30.22R FOG
BLACKSBURG     PTCLDY    61  61  98 CALM      30.25S FOG
DUBLIN*        PTCLDY    62  62 100 CALM      30.24S FOG
MARION*        CLOUDY    63  61  92 CALM      30.26S
HILLSVILLE*    CLEAR     62  61  96 CALM      30.27R
RICHLANDS*     FAIR      65  60  82 SE3       30.23S
WISE*          CLEAR     63  61  94 SW3       30.23R
ABINGDON*      CLEAR     63  62  99 CALM      30.21S
$$

MDZ021>025-VAZ099-100-301000-
SOUTHERN MARYLAND AND THE DELMARVA PENINSULA

CITY           SKY/WX    TMP DP  RH WIND       PRES   REMARKS
PATUXENT RIVER PTCLDY    69  67  93 S5        30.19R
BAY BRIDGE APT   N/A    N/A N/A N/A S7        30.19R
LEONARDTOWN    CLEAR     68  64  88 S3        30.21R
DOVER          CLEAR     66  66 100 S6        30.17S
GEORGETOWN     MOCLDY    67  66  97 S7        30.21S
EASTON         MOCLDY    69  69 100 S5        30.23R
CAMBRIDGE      CLOUDY    66  63  88 CALM      30.19S
SALISBURY      FOG       63  62  97 CALM      30.21R VSB 1/2
OCEAN CITY     CLEAR     68  66  93 SW6       30.21S
WALLOPS ISLAND PTCLDY    67  67 100 S7        30.21S
ACCOMACK*      CLEAR     66  66 100 S3        30.21R
$$

NCZ012>017-030>032-301000-
NORTH CENTRAL AND EASTERN NORTH CAROLINA

CITY           SKY/WX    TMP DP  RH WIND       PRES   REMARKS
ROANOKE RAPIDS CLOUDY    64  64 100 CALM      30.20S FOG
RALEIGH        PTCLDY    66  64  93 CALM      30.20R
ELIZABETH CITY PTCLDY    67  66  97 CALM      30.21R
AHOSKIE*       PTCLDY    63  63  97 CALM      30.21R
EDENTON*       PTCLDY    67  65  93 CALM      30.20S
CURRITUCK*     PTCLDY    70  68  93 CALM      30.21R
KILL DEVIL HLS   N/A     69  66  89 CALM      30.19S
MANTEO         PTCLDY    67  65  93 CALM      30.21R
CAPE HATTERAS  PTCLDY    73  64  73 SE6       30.20R
TARBORO*       FAIR      64  63  97 CALM      30.21R FOG
GOLDSBORO      CLEAR     66  65  97 CALM      30.17R
WASHINGTON     PTCLDY    65  64  96 CALM      30.20R
GREENVILLE     PTCLDY    66  66 100 CALM      30.21R
NEW BERN       PTCLDY    67  64  90 CALM      30.20R
WILMINGTON     PTCLDY    67  65  93 CALM      30.17R
$$

VAZ048-301000-
ELSEWHERE

CITY           SKY/WX    TMP DP  RH WIND       PRES   REMARKS
HARRISBURG PA  PTCLDY    71  64  78 S9        30.15S
BALTIMORE      MOCLDY    70  66  87 CALM      30.18R
ANNAPOLIS      MOCLDY    70  66  87 S7        30.18R
ANDREWS AFB    PTCLDY    67  67  99 S5        30.18S
PHILADELPHIA   PTCLDY    69  65  86 S5        30.20S
HENDERSON NC   CLEAR     66  63  89 S3        30.20S
GREENSBORO     PTCLDY    65  62  90 S3        30.19R
ROCKY MOUNT    PTCLDY    67  66  97 CALM      30.20R
$$

VAZ100-301000-
MARINE

STATION/POSITION TIME  TEMP    WIND        PRES    WAVE   SWELL
                       AIR SEA DIR/SP/G            HT/PER HT/PER
                 (UTC) (F)     (DEG/KT/KT) (MB)    (FT/S) (FT/S)
BRANDYWINE LGT   0800   66 67  190/  8/  8 1022.9S
CAPE MAY NJ      0800   64 67  160/  7/  9 1022.7R
LEWES DE         0800   68 62  200/  3/  4 1022.6F
15NM E FENWICK I 0850   66 65              1022.8S   3/ 9
OCEAN-CITY-INLET 0800   64 62  210/  5/  6 1022.7F
WACHAPREAGUE VA  0800   69 76  220/  4/  6 1022.8F
THOMAS POINT MD  0900   70 71  190/ 10/ 11 1022.7R
GOOSES REEF MD   0900   71 72  190/ 12/ 14 1023.0R   1/ 3
COVE POINT MD    0800   70     200/ 10/ 12 1022.8F
SOLOMONS ISLAND  0800      73                N/A
BISHOPS HEAD MD  0800   72 76  180/ 10/ 12 1022.2F
PINEY POINT MD   0800          180/  9/ 10   N/A
CAMBRIDGE MD     0800   68 75  130/  1/  3 1022.2F
LEWISETTA VA     0800   70 76              1022.0F
RAPPAHANNOCK LGT 0800          150/ 10/ 11 1023.1F
STINGRAY PT      0900   72 73  180/  8/ 10 1022.3R   1/ 2
YORK RVR RNG VA  0800   72     190/  7/  8 1021.9F
YORKTOWN VA      0800   70 74   CALM  /  1 1022.3S
JAMESTOWN VA     0900   70 77  170/  4/  8   N/A
DOMINION TERM VA 0800   72     170/  7/  9 1022.6F
KIPTOPEKE VA     0800      77  150/  5/  9   N/A
CHES BAY BRIDGE  0800   71 72  130/  4/  5 1022.3S
CAPE HENRY VA    0800   69     140/  3/  4 1021.5R
CHESAPEAKE LGHT  0800   70     170/ 11/ 11 1023.3R
WILLOUBY STN VA  0800   71     140/  6/  6 1023.3F
CAPE HENRY BUOY  0828      65                N/A     3/ 8
1ST LANDING BUOY 0900      71              1022.3S
CAPE CHARLES BUO 0826      69                N/A     3/ 8   2/ 8
OFFSHORE WE BUOY 0811      68                N/A     3/10   3/10
64NM E OF VA BCH 0850   69 66  130/  4/  4 1022.6R   3/ 9   3/ 9
DUCK PIER NC     0800   68 59  110/  4/  4 1021.5F
44100 DUCK FRF   0824      73                N/A     3/ 9
44056 DUCK FRF   0811      65                N/A     3/ 9
OREGON INLET NC  0800   71 75  120/  4/  5 1022.3F
HATTERAS NC      0800   75 78  140/  5/  7 1021.7F
DIAMOND SHLS NC  0850   75 79  120/  6/  8 1022.4R   4/ 9   3/ 9
CAPE LOOKOUT NC  0900   74     120/  3/  3 1022.0R
$$



USA.gov is the U.S. government's official web portal to all federal, state and local government web resources and services.